This demonstration page uses our WeatherBlox Daily Observations layout. Learn more.

Left ArrowRight Arrow

Hourly Observations for June 16, 2019

Temp ( °F °C ) Dew Point ( °F °C ) Humidity (%) Winds ( mph kmh ) Pressure ( in mb ) Visibility ( mi km ) Precip ( " mm )
12:53 am 00:53 Clear 50 10 46 7.8 86 86 Calm 29.96 1015 10 16 0.00 0.00
1:53 am 01:53 Clear 52 11.1 46 7.8 80 80 Calm 29.96 1015 10 16 0.00 0.00
2:53 am 02:53 Clear 48 8.9 45 7.2 89 89 S 7 11 29.96 1015 10 16 0.00 0.00
3:53 am 03:53 Clear 47 8.3 45 7.2 93 93 WNW 5 7 29.96 1015 10 16 0.00 0.00
4:53 am 04:53 Clear 47 8.3 45 7.2 93 93 SSW 3 6 29.98 1015 10 16 0.00 0.00
5:53 am 05:53 Sunny 48 8.9 45 7.2 89 89 S 3 6 29.98 1015 10 16 0.00 0.00
6:53 am 06:53 Sunny 52 11.1 47 8.3 83 83 W 5 7 30.00 1016 10 16 0.00 0.00
7:53 am 07:53 Sunny 55 12.8 48 8.9 77 77 WSW 5 7 30.00 1016 10 16 0.00 0.00
8:53 am 08:53 Sunny 62 16.7 49 9.4 62 62 SSW 5 7 29.99 1016 10 16 0.00 0.00
9:53 am 09:53 Sunny 63 17.2 50 10 63 63 SW 6 9 30.01 1016 10 16 0.00 0.00
10:53 am 10:53 Sunny 71 21.7 49 9.4 46 46 VRB 5 7 29.98 1015 10 16 0.00 0.00
11:29 am 11:29 Mostly Cloudy 67 19.4 47 8.3 49 49 NNE 15 24 29.92 1013 10 16 0.00 0.00
11:53 am 11:53 Mostly Sunny 71 21.7 45 7.2 39 39 NE 13 20 29.98 1015 10 16 0.00 0.00
12:53 pm 12:53 Mostly Sunny 72 22.2 44 6.7 37 37 SE 7 11 29.98 1015 10 16 0.00 0.00
1:53 pm 13:53 Mostly Cloudy 73 22.8 44 6.7 35 35 Calm 29.96 1014 10 16 0.00 0.00
2:27 pm 14:27 Partly Cloudy with Thunderstorms 75 23.9 45 7.2 34 34 S 9 15 29.83 1010 10 16 0.00 0.00
2:44 pm 14:44 Partly Cloudy 75 23.9 45 7.2 34 34 VRB 5 7 29.85 1011 10 16 0.00 0.00
2:53 pm 14:53 Mostly Cloudy with Nearby Thunderstorms 68 20 47 8.3 47 47 NE 9 15 29.97 1015 10 16 0.00 0.03
3:11 pm 15:11 Cloudy with Light Rain 63 17.2 52 11.1 68 68 NNW 5 7 29.91 1013 10 16 0.01 0.25
3:21 pm 15:21 Cloudy with Thunderstorms 64 17.8 54 12.2 70 70 VRB 3 6 29.90 1013 10 16 0.01 0.25
3:36 pm 15:36 Mostly Cloudy with Nearby Thunderstorms 63 17 55 13 77 77 E 7 11 29.90 1013 10 16 0.00 0.00
3:53 pm 15:53 Mostly Sunny 67 19.4 53 11.7 61 61 SE 3 6 29.96 1015 10 16 0.02 0.51
4:53 pm 16:53 Sunny 73 22.8 47 8.3 40 40 Calm 29.93 1014 10 16 0.00 0.00
5:53 pm 17:53 Cloudy with Light Rain 63 17.2 53 11.7 70 70 NNE 12 19 29.96 1015 9 14 0.02 0.51
6:53 pm 18:53 Sunny 70 21.1 49 9.4 47 47 E 7 11 29.95 1014 10 16 0.00 0.03
7:53 pm 19:53 Sunny 68 20 49 9.4 51 51 SSE 8 13 29.95 1014 10 16 0.00 0.00
8:53 pm 20:53 Sunny 63 17.2 53 11.7 70 70 SSE 5 7 29.95 1014 10 16 0.00 0.00
9:53 pm 21:53 Clear 62 16.7 51 10.6 67 67 Calm 29.97 1015 10 16 0.00 0.00
10:53 pm 22:53 Clear 55 12.8 49 9.4 80 80 Calm 29.98 1015 10 16 0.00 0.00
11:53 pm 23:53 Clear 53 11.7 49 9.4 86 86 NE 6 9 29.98 1015 10 16 0.00 0.00

Powered by AerisWeather